Change the Weather History Date:

Saturday, October 6, 2012

  Actual Average Record
Temperature  
Mean Temperature 51 °F -  
Max Temperature 54 °F 65 °F 82 °F (1963)
Min Temperature 48 °F 47 °F 29 °F (1984)
Degree Days  
Heating Degree Days 14    
Growing Degree Days 1 (Base 50)    
Moisture  
Dew Point 42 °F    
Average Humidity 75    
Maximum Humidity 93    
Minimum Humidity 48    
Precipitation  
Precipitation 0.77 in - - ()
Sea Level Pressure  
Sea Level Pressure 29.93 in    
Wind  
Wind Speed 8 mph (West)    
Max Wind Speed 21 mph    
Max Gust Speed 32 mph    
Visibility 8 miles    
Events Rain    
Averages and records for this station are not official NWS values.
T = Trace of Precipitation, MM = Missing Value Source: NWS Daily Summary

Daily Weather History Graph

Daily Weather History Graph

Search for Another Location

Airport or City:

Trip Planner

Search our weather history database for the weather conditions in past years. The results will help you decide how hot, cold, wet, or windy it might be!

Date:

Astronomy

Oct. 06, 2012 Rise Set
Actual Time 7:20 AM EDT 6:49 PM EDT
Civil Twilight 6:52 AM EDT 7:17 PM EDT
Nautical Twilight 6:19 AM EDT 7:49 PM EDT
Astronomical Twilight 5:46 AM EDT 8:22 PM EDT
Moon 10:57 PM EDT (10/6) 1:19 PM EDT (10/6)
Length of Visible Light 12h 24m
Length of Day
11h 28m
Waning Gibbous, 65% of the Moon is Illuminated
Oct 6
Waning Gibbous
Oct 8
Last Quarter
Oct 15
New
Oct 21
First Quarter
Oct 29
Full

Hourly Weather History & Observations

Time (EDT) Temp. Dew Point Humidity Pressure Visibility Wind Dir Wind Speed Gust Speed Precip Events Conditions
12:19 AM 51.8 °F 48.2 °F 88% 29.91 in 9.0 mi West 5.8 mph - 0.02 in Rain Light Rain
12:46 AM 51.8 °F 48.2 °F 88% 29.90 in 6.0 mi WNW 8.1 mph - 0.05 in Rain Light Rain
12:53 AM 51.1 °F 48.0 °F 89% 29.89 in 7.0 mi WNW 5.8 mph - 0.06 in Rain Light Rain
1:34 AM 51.8 °F 48.2 °F 88% 29.87 in 2.5 mi Variable 3.5 mph - 0.08 in Rain Rain
1:47 AM 51.8 °F 48.2 °F 88% 29.89 in 3.0 mi West 4.6 mph - 0.14 in Rain Rain
1:53 AM 51.1 °F 48.9 °F 92% 29.89 in 3.0 mi West 3.5 mph - 0.17 in Rain Rain
2:01 AM 51.8 °F 48.2 °F 88% 29.87 in 2.0 mi Calm Calm - 0.04 in Rain Heavy Rain
2:21 AM 51.8 °F 48.2 °F 88% 29.87 in 4.0 mi NW 8.1 mph - 0.11 in Rain Rain
2:53 AM 50.0 °F 46.9 °F 89% 29.86 in 10.0 mi NW 8.1 mph - 0.15 in Rain Light Rain
3:05 AM 50.0 °F 46.4 °F 87% 29.85 in 5.0 mi NW 9.2 mph - 0.02 in Rain Rain
3:48 AM 50.0 °F 46.4 °F 87% 29.88 in 3.0 mi West 8.1 mph - 0.15 in Rain Heavy Rain
3:53 AM 50.0 °F 46.9 °F 89% 29.89 in 3.0 mi West 8.1 mph - 0.18 in Rain Heavy Rain
4:00 AM 48.2 °F 46.4 °F 93% 29.88 in 2.5 mi West 8.1 mph - 0.03 in Rain Heavy Rain
4:06 AM 48.2 °F 46.4 °F 93% 29.88 in 3.0 mi West 6.9 mph - 0.06 in Rain Heavy Rain
4:13 AM 48.2 °F 46.4 °F 93% 29.88 in 3.0 mi Variable 5.8 mph - 0.09 in Rain Heavy Rain
4:20 AM 48.2 °F 46.4 °F 93% 29.88 in 4.0 mi West 8.1 mph - 0.11 in Rain Rain
4:53 AM 48.9 °F 46.0 °F 90% 29.88 in 6.0 mi NW 10.4 mph - 0.19 in Rain Rain
5:53 AM 48.9 °F 46.0 °F 90% 29.89 in 10.0 mi West 6.9 mph - 0.02 in   Overcast
6:09 AM 48.2 °F 44.6 °F 87% 29.89 in 10.0 mi West 9.2 mph - 0.00 in Rain Light Rain
7:53 AM 48.0 °F 45.0 °F 89% 29.90 in 10.0 mi SSW 4.6 mph - 0.00 in   Overcast
8:42 AM 50.0 °F 42.8 °F 76% 29.89 in 10.0 mi West 8.1 mph 18.4 mph N/A   Overcast
8:53 AM 50.0 °F 44.1 °F 80% 29.90 in 10.0 mi West 12.7 mph 18.4 mph N/A   Overcast
9:53 AM 51.1 °F 42.1 °F 71% 29.92 in 10.0 mi West 12.7 mph 20.7 mph N/A   Overcast
10:08 AM 51.8 °F 41.0 °F 67% 29.92 in 10.0 mi West 15.0 mph 21.9 mph N/A   Overcast
10:53 AM 51.1 °F 39.9 °F 66% 29.94 in 10.0 mi West 16.1 mph 26.5 mph N/A   Mostly Cloudy
11:53 AM 51.1 °F 39.0 °F 63% 29.95 in 10.0 mi West 12.7 mph 25.3 mph N/A   Mostly Cloudy
12:53 PM 51.1 °F 37.0 °F 59% 29.96 in 10.0 mi West 15.0 mph 26.5 mph N/A   Overcast
1:53 PM 54.0 °F 37.9 °F 55% 29.95 in 10.0 mi West 16.1 mph 25.3 mph N/A   Mostly Cloudy
2:53 PM 53.1 °F 35.1 °F 50% 29.95 in 10.0 mi West 19.6 mph 31.1 mph N/A   Overcast
3:53 PM 52.0 °F 37.9 °F 59% 29.97 in 10.0 mi West 20.7 mph 32.2 mph N/A   Overcast
4:53 PM 51.1 °F 37.9 °F 61% 29.98 in 10.0 mi West 16.1 mph 26.5 mph N/A   Overcast
5:53 PM 50.0 °F 36.0 °F 59% 30.00 in 10.0 mi WNW 12.7 mph 24.2 mph N/A   Overcast
6:53 PM 50.0 °F 35.1 °F 57% 30.01 in 10.0 mi West 13.8 mph 23.0 mph N/A   Overcast
7:53 PM 50.0 °F 30.9 °F 48% 30.04 in 10.0 mi WNW 15.0 mph 21.9 mph N/A   Overcast
8:53 PM 51.1 °F 33.1 °F 50% 30.05 in 10.0 mi West 8.1 mph - N/A   Overcast
9:53 PM 51.1 °F 33.1 °F 50% 30.06 in 10.0 mi West 11.5 mph 16.1 mph N/A   Overcast
10:53 PM 50.0 °F 33.1 °F 52% 30.06 in 10.0 mi West 9.2 mph - N/A   Overcast
11:53 PM 50.0 °F 35.1 °F 57% 30.06 in 10.0 mi WNW 10.4 mph 19.6 mph N/A   Overcast